Home   Weather   Langfang   Past weeks

Flag for China Past Weather in Langfang, Hebei, China — Yesterday and Last 2 Weeks

Now
77 °F

Haze.


Feels Like: 79 °F
Forecast: 65 / 78 °F
Wind: 3 mph from East

Location: Beijing Airport

Current Time: Sep 25, 2016 at 1:34:04 PM

Latest Report: Sep 25, 2016 at 1:00 PM


Visibility: 2 mi

Pressure: 29.95 "Hg

Humidity: 69%

Dew Point: 66 °F

Location of LangfangLocation

Past Weather in Langfang — Graph

°F

Langfang Temperature Yesterday

Maximum temperature yesterday: 81 °F (at 2:00 PM)
Minimum temperature yesterday: 63 °F (at 5:30 AM)
Average temperature yesterday: 72 °F

High & Low Weather Summary for the Past Weeks

 TemperatureHumidityPressure
High88 °F (Sep 10, 12:30 PM)100% (Sep 11, 2:30 AM)30.24 "Hg (Sep 11, 2:30 AM)
Low52 °F (Sep 20, 5:30 AM)27% (Sep 10, 12:30 PM)29.77 "Hg (Sep 10, 3:00 PM)
Average70 °F76%30.00 "Hg
* Reported Sep 10 12:00 PM — Sep 25 12:30 PM, Langfang, Weather by CustomWeather, © 2016

Note: Actual official high and low records may vary slightly from our data, if they occured in-between our weather recording intervals... More about our weather records

Advertising

Langfang Weather History for the Previous 24 Hours

Scroll right to see more
 ConditionsComfort  
Time TempWeatherWind HumidityBarometerVisibility
12:30 PM
Sun, Sep 25
77 °FHaze.6 mph69%29.95 "Hg2 mi
12:00 PM77 °FHaze.3 mph69%29.98 "Hg2 mi
11:30 AM77 °FHaze.6 mph65%29.98 "Hg2 mi
11:00 AM73 °FHaze.6 mph74%30.01 "Hg2 mi
10:30 AM73 °FFog.3 mph69%30.01 "Hg2 mi
10:00 AM73 °FFog.3 mph74%30.01 "Hg2 mi
9:30 AM72 °FFog.3 mph73%30.01 "Hg2 mi
9:00 AM72 °FFog.3 mph78%29.98 "Hg2 mi
8:30 AM70 °FFog.3 mph83%29.98 "Hg2 mi
8:00 AM70 °FFog.3 mph83%29.98 "Hg1 mi
7:30 AM70 °FFog.1 mph83%29.95 "Hg1 mi
7:00 AM68 °FFog.3 mph88%29.95 "Hg1 mi
6:30 AM70 °FFog.6 mph83%29.95 "Hg1 mi
6:00 AM66 °FFog.1 mph94%29.92 "Hg2 mi
5:30 AM66 °FFog.1 mph94%29.92 "Hg2 mi
5:00 AM66 °FFog.1 mph94%29.92 "Hg2 mi
4:30 AM68 °FFog.1 mph88%29.89 "Hg2 mi
4:00 AM68 °FFog.3 mph88%29.89 "Hg2 mi
3:30 AM68 °FFog.3 mph88%29.89 "Hg2 mi
3:00 AM68 °FFog.3 mph88%29.89 "Hg2 mi
2:30 AM68 °FFog.1 mph94%29.89 "Hg2 mi
2:00 AM68 °FFog.1 mph94%29.86 "Hg2 mi
1:30 AM68 °FFog.No wind94%29.86 "Hg2 mi
1:00 AM70 °FFog.1 mph88%29.86 "Hg2 mi
12:30 AM70 °FFog.1 mph88%29.86 "Hg2 mi
12:00 AM72 °FFog.1 mph88%29.86 "Hg2 mi
11:30 PM
Sat, Sep 24
72 °FFog.1 mph83%29.86 "Hg2 mi
11:00 PM72 °FFog.1 mph83%29.86 "Hg2 mi
10:30 PM72 °FFog.1 mph83%29.86 "Hg2 mi
10:00 PM72 °FFog.1 mph83%29.83 "Hg2 mi
9:30 PM72 °FFog.3 mph83%29.83 "Hg2 mi
9:00 PM72 °FFog.3 mph83%29.83 "Hg2 mi
8:30 PM72 °FFog.3 mph83%29.83 "Hg2 mi
8:00 PM72 °FFog.3 mph88%29.80 "Hg2 mi
7:30 PM70 °FHaze.1 mph88%29.80 "Hg2 mi
7:00 PM73 °FHaze.3 mph78%29.80 "Hg2 mi
6:30 PM73 °FHaze.3 mph78%29.77 "Hg2 mi
6:00 PM75 °FHaze.3 mph74%29.77 "Hg2 mi
5:30 PM77 °FHaze.3 mph69%29.77 "Hg2 mi
5:00 PM79 °FHaze.3 mph65%29.77 "Hg2 mi
4:30 PM81 °FHaze.3 mph62%29.77 "Hg2 mi
4:00 PM81 °FHaze.3 mph58%29.77 "Hg2 mi
3:30 PM81 °FHaze.3 mph58%29.77 "Hg3 mi
3:00 PM81 °FClear.3 mph62%29.77 "Hg4 mi
2:30 PM81 °FClear.3 mph58%29.77 "Hg4 mi
2:00 PM81 °FClear.3 mph54%29.77 "Hg5 mi
1:30 PM79 °FClear.3 mph58%29.77 "Hg5 mi
1:00 PM79 °FClear.1 mph58%29.80 "Hg5 mi
Weather by CustomWeather, © 2016

See weather overviewHow to use our weather pages